This is the latest recevied weather packets stored in our database for station/object IT9RID. If no packets are shown the sender has not sent any weather packets the latest 10 day(s).
| Time | Temp. | Humidity | Pressure | Rain* | Wind** | Luminosity | Snow |
|---|---|---|---|---|---|---|---|
| 1787952466 | 30.56° C | 42% | 1014.4 hPa | 0 mm | - | - | - |
| 1787951865 | 30.56° C | 41% | 1014.3 hPa | 0 mm | - | - | - |
| 1787951265 | 30° C | 46% | 1014.4 hPa | 0 mm | - | - | - |
| 1787950665 | 30° C | 50% | 1014.4 hPa | 0 mm | - | - | - |
| 1787950065 | 30° C | 50% | 1014.6 hPa | 0 mm | - | - | - |
| 1787949465 | 30° C | 52% | 1014.6 hPa | 0 mm | - | - | - |
| 1787948865 | 30° C | 53% | 1014.7 hPa | 0 mm | - | - | - |
| 1787948264 | 30.56° C | 52% | 1014.7 hPa | 0 mm | - | - | - |
| 1787947664 | 30° C | 51% | 1014.7 hPa | 0 mm | - | - | - |
| 1787947064 | 30.56° C | 53% | 1014.8 hPa | 0 mm | - | - | - |
| 1787946464 | 30.56° C | 51% | 1014.8 hPa | 0 mm | - | - | - |
| 1787945864 | 30.56° C | 53% | 1014.9 hPa | 0 mm | - | - | - |
| 1787945264 | 30.56° C | 53% | 1014.8 hPa | 0 mm | - | - | - |
| 1787944663 | 30.56° C | 53% | 1014.9 hPa | 0 mm | - | - | - |
| 1787944063 | 30.56° C | 54% | 1014.8 hPa | 0 mm | - | - | - |
| 1787943463 | 30.56° C | 55% | 1014.6 hPa | 0 mm | - | - | - |
| 1787942863 | 30.56° C | 56% | 1014.6 hPa | 0 mm | - | - | - |
| 1787942263 | 31.11° C | 55% | 1014.7 hPa | 0 mm | - | - | - |
| 1787941663 | 31.11° C | 55% | 1014.6 hPa | 0 mm | - | - | - |
| 1787941063 | 31.11° C | 56% | 1014.4 hPa | 0 mm | - | - | - |
| 1787940462 | 30.56° C | 56% | 1014.4 hPa | 0 mm | - | - | - |
| 1787939862 | 31.11° C | 55% | 1014.4 hPa | 0 mm | - | - | - |
| 1787939262 | 31.67° C | 56% | 1014.3 hPa | 0 mm | - | - | - |
| 1787938662 | 31.67° C | 55% | 1014.3 hPa | 0 mm | - | - | - |
| 1787938061 | 31.67° C | 53% | 1014.3 hPa | 0 mm | - | - | - |
* Rain latest hour (hover to see other rain measurements)
** Current wind speed in m/s (hover to see current wind gust speed)